Location: Allonne
(49.4086°N, 2.1143°E)
Time: 14:23:06
(UTC+00:00)

DMSP B5D2-2 - Pass Details

Date: 11 August 2024
Orbit: 787 x 802 km, 98.3° (Epoch: 09 September)

Event Time Altitude Azimuth Distance (km) Brightness Sun altitude
Rises 02:37:01 0° 141° (SE) 3,275 7.2 -16.4°
Reaches altitude 10° 02:39:26 10° 135° (SE) 2,349 6.5 -16.1°
Maximum altitude 02:44:15 41° 66° (ENE) 1,137 5.4 -15.6°
Drops below altitude 10° 02:49:06 10° 358° (N) 2,361 7.2 -15.1°
Sets 02:51:32 0° 351° (N) 3,294 7.8 -14.8°
